Year,Month,Day,Hour,Minute,Value (Times are PST for temperature in C)
2012,07,06,00,00,12.80
2012,07,06,00,01,12.80
2012,07,06,00,02,12.80
2012,07,06,00,03,12.80
2012,07,06,00,04,12.80
2012,07,06,00,05,12.80
2012,07,06,00,06,12.80
2012,07,06,00,07,12.80
2012,07,06,00,08,12.80
2012,07,06,00,09,12.80
2012,07,06,00,10,12.70
2012,07,06,00,11,12.70
2012,07,06,00,12,12.70
2012,07,06,00,13,12.70
2012,07,06,00,14,12.70
2012,07,06,00,15,12.70
2012,07,06,00,16,12.70
2012,07,06,00,17,12.60
2012,07,06,00,18,12.60
2012,07,06,00,19,12.60
2012,07,06,00,20,12.60
2012,07,06,00,21,12.60
2012,07,06,00,22,12.60
2012,07,06,00,23,12.60
2012,07,06,00,24,12.60
2012,07,06,00,25,12.60
2012,07,06,00,26,12.60
2012,07,06,00,27,12.60
2012,07,06,00,28,12.60
2012,07,06,00,29,12.60
2012,07,06,00,30,12.60
2012,07,06,00,31,12.60
2012,07,06,00,32,12.60
2012,07,06,00,33,12.70
2012,07,06,00,34,12.70
2012,07,06,00,35,12.70
2012,07,06,00,36,12.70
2012,07,06,00,37,12.70
2012,07,06,00,38,12.70
2012,07,06,00,39,12.70
2012,07,06,00,40,12.70
2012,07,06,00,41,12.70
2012,07,06,00,42,12.70
2012,07,06,00,43,12.70
2012,07,06,00,44,12.70
2012,07,06,00,45,12.70
2012,07,06,00,46,12.80
2012,07,06,00,47,12.80
2012,07,06,00,48,12.80
2012,07,06,00,49,12.80
2012,07,06,00,50,12.80
2012,07,06,00,51,12.80
2012,07,06,00,52,12.80
2012,07,06,00,53,12.80
2012,07,06,00,54,12.80
2012,07,06,00,55,12.80
2012,07,06,00,56,12.80
2012,07,06,00,57,12.80
2012,07,06,00,58,12.80
2012,07,06,00,59,12.80
2012,07,06,01,00,12.80
2012,07,06,01,01,12.80
2012,07,06,01,02,12.80
2012,07,06,01,03,12.80
2012,07,06,01,04,12.80
2012,07,06,01,05,12.80
2012,07,06,01,06,12.80
2012,07,06,01,07,12.80
2012,07,06,01,08,12.80
2012,07,06,01,09,12.80
2012,07,06,01,10,12.70
2012,07,06,01,11,12.70
2012,07,06,01,12,12.60
2012,07,06,01,13,12.60
2012,07,06,01,14,12.50
2012,07,06,01,15,12.40
2012,07,06,01,16,12.40
2012,07,06,01,17,12.30
2012,07,06,01,18,12.30
2012,07,06,01,19,12.20
2012,07,06,01,20,12.20
2012,07,06,01,21,12.20
2012,07,06,01,22,12.20
2012,07,06,01,23,12.20
2012,07,06,01,24,12.20
2012,07,06,01,25,12.20
2012,07,06,01,26,12.20
2012,07,06,01,27,12.20
2012,07,06,01,28,12.30
2012,07,06,01,29,12.30
2012,07,06,01,30,12.30
2012,07,06,01,31,12.40
2012,07,06,01,32,12.40
2012,07,06,01,33,12.50
2012,07,06,01,34,12.60
2012,07,06,01,35,12.60
2012,07,06,01,36,12.60
2012,07,06,01,37,12.60
2012,07,06,01,38,12.70
2012,07,06,01,39,12.70
2012,07,06,01,40,12.80
2012,07,06,01,41,12.80
2012,07,06,01,42,12.90
2012,07,06,01,43,12.90
2012,07,06,01,44,13.00
2012,07,06,01,45,13.00
2012,07,06,01,46,13.10
2012,07,06,01,47,13.10
2012,07,06,01,48,13.10
2012,07,06,01,49,13.00
2012,07,06,01,50,12.90
2012,07,06,01,51,12.80
2012,07,06,01,52,12.70
2012,07,06,01,53,12.60
2012,07,06,01,54,12.50
2012,07,06,01,55,12.40
2012,07,06,01,56,12.30
2012,07,06,01,57,12.10
2012,07,06,01,58,12.10
2012,07,06,01,59,12.00
2012,07,06,02,00,11.90
2012,07,06,02,01,11.80
2012,07,06,02,02,11.80
2012,07,06,02,03,11.80
2012,07,06,02,04,11.70
2012,07,06,02,05,11.70
2012,07,06,02,06,11.70
2012,07,06,02,07,11.60
2012,07,06,02,08,11.60
2012,07,06,02,09,11.60
2012,07,06,02,10,11.60
2012,07,06,02,11,11.50
2012,07,06,02,12,11.40
2012,07,06,02,13,11.40
2012,07,06,02,14,11.40
2012,07,06,02,15,11.30
2012,07,06,02,16,11.30
2012,07,06,02,17,11.30
2012,07,06,02,18,11.30
2012,07,06,02,19,11.30
2012,07,06,02,20,11.30
2012,07,06,02,21,11.30
2012,07,06,02,22,11.30
2012,07,06,02,23,11.30
2012,07,06,02,24,11.30
2012,07,06,02,25,11.30
2012,07,06,02,26,11.30
2012,07,06,02,27,11.30
2012,07,06,02,28,11.30
2012,07,06,02,29,11.30
2012,07,06,02,30,11.30
2012,07,06,02,31,11.30
2012,07,06,02,32,11.40
2012,07,06,02,33,11.50
2012,07,06,02,34,11.50
2012,07,06,02,35,11.50
2012,07,06,02,36,11.50
2012,07,06,02,37,11.60
2012,07,06,02,38,11.60
2012,07,06,02,39,11.60
2012,07,06,02,40,11.60
2012,07,06,02,41,11.60
2012,07,06,02,42,11.60
2012,07,06,02,43,11.60
2012,07,06,02,44,11.70
2012,07,06,02,45,11.70
2012,07,06,02,46,11.70
2012,07,06,02,47,11.70
2012,07,06,02,48,11.70
2012,07,06,02,49,11.70
2012,07,06,02,50,11.60
2012,07,06,02,51,11.60
2012,07,06,02,52,11.60
2012,07,06,02,53,11.50
2012,07,06,02,54,11.50
2012,07,06,02,55,11.40
2012,07,06,02,56,11.40
2012,07,06,02,57,11.40
2012,07,06,02,58,11.30
2012,07,06,02,59,11.30
2012,07,06,03,00,11.30
2012,07,06,03,01,11.20
2012,07,06,03,02,11.20
2012,07,06,03,03,11.20
2012,07,06,03,04,11.20
2012,07,06,03,05,11.20
2012,07,06,03,06,11.20
2012,07,06,03,07,11.20
2012,07,06,03,08,11.20
2012,07,06,03,09,11.30
2012,07,06,03,10,11.30
2012,07,06,03,11,11.30
2012,07,06,03,12,11.30
2012,07,06,03,13,11.30
2012,07,06,03,14,11.30
2012,07,06,03,15,11.30
2012,07,06,03,16,11.30
2012,07,06,03,17,11.30
2012,07,06,03,18,11.20
2012,07,06,03,19,11.20
2012,07,06,03,20,11.20
2012,07,06,03,21,11.20
2012,07,06,03,22,11.20
2012,07,06,03,23,11.10
2012,07,06,03,24,11.10
2012,07,06,03,25,11.00
2012,07,06,03,26,11.00
2012,07,06,03,27,11.00
2012,07,06,03,28,10.90
2012,07,06,03,29,10.90
2012,07,06,03,30,10.90
2012,07,06,03,31,10.90
2012,07,06,03,32,10.90
2012,07,06,03,33,10.90
2012,07,06,03,34,10.90
2012,07,06,03,35,10.90
2012,07,06,03,36,10.90
2012,07,06,03,37,10.90
2012,07,06,03,38,10.90
2012,07,06,03,39,10.90
2012,07,06,03,40,10.90
2012,07,06,03,41,10.90
2012,07,06,03,42,10.90
2012,07,06,03,43,10.90
2012,07,06,03,44,10.80
2012,07,06,03,45,10.80
2012,07,06,03,46,10.70
2012,07,06,03,47,10.70
2012,07,06,03,48,10.70
2012,07,06,03,49,10.70
2012,07,06,03,50,10.60
2012,07,06,03,51,10.60
2012,07,06,03,52,10.60
2012,07,06,03,53,10.50
2012,07,06,03,54,10.50
2012,07,06,03,55,10.40
2012,07,06,03,56,10.40
2012,07,06,03,57,10.40
2012,07,06,03,58,10.40
2012,07,06,03,59,10.40
2012,07,06,04,00,10.40
2012,07,06,04,01,10.40
2012,07,06,04,02,10.40
2012,07,06,04,03,10.40
2012,07,06,04,04,10.40
2012,07,06,04,05,10.30
2012,07,06,04,06,10.30
2012,07,06,04,07,10.30
2012,07,06,04,08,10.30
2012,07,06,04,09,10.30
2012,07,06,04,10,10.30
2012,07,06,04,11,10.30
2012,07,06,04,12,10.30
2012,07,06,04,13,10.30
2012,07,06,04,14,10.30
2012,07,06,04,15,10.30
2012,07,06,04,16,10.30
2012,07,06,04,17,10.30
2012,07,06,04,18,10.20
2012,07,06,04,19,10.20
2012,07,06,04,20,10.20
2012,07,06,04,21,10.20
2012,07,06,04,22,10.20
2012,07,06,04,23,10.20
2012,07,06,04,24,10.20
2012,07,06,04,25,10.20
2012,07,06,04,26,10.20
2012,07,06,04,27,10.20
2012,07,06,04,28,10.20
2012,07,06,04,29,10.20
2012,07,06,04,30,10.20
2012,07,06,04,31,10.20
2012,07,06,04,32,10.30
2012,07,06,04,33,10.30
2012,07,06,04,34,10.30
2012,07,06,04,35,10.30
2012,07,06,04,36,10.30
2012,07,06,04,37,10.30
2012,07,06,04,38,10.30
2012,07,06,04,39,10.30
2012,07,06,04,40,10.40
2012,07,06,04,41,10.30
2012,07,06,04,42,10.30
2012,07,06,04,43,10.30
2012,07,06,04,44,10.30
2012,07,06,04,45,10.30
2012,07,06,04,46,10.20
2012,07,06,04,47,10.20
2012,07,06,04,48,10.20
2012,07,06,04,49,10.20
2012,07,06,04,50,10.30
2012,07,06,04,51,10.30
2012,07,06,04,52,10.20
2012,07,06,04,53,10.20
2012,07,06,04,54,10.20
2012,07,06,04,55,10.20
2012,07,06,04,56,10.20
2012,07,06,04,57,10.20
2012,07,06,04,58,10.20
2012,07,06,04,59,10.20
2012,07,06,05,00,10.20
2012,07,06,05,01,10.20
2012,07,06,05,02,10.20
2012,07,06,05,03,10.20
2012,07,06,05,04,10.20
2012,07,06,05,05,10.20
2012,07,06,05,06,10.20
2012,07,06,05,07,10.30
2012,07,06,05,08,10.30
2012,07,06,05,09,10.30
2012,07,06,05,10,10.30
2012,07,06,05,11,10.40
2012,07,06,05,12,10.30
2012,07,06,05,13,10.40
2012,07,06,05,14,10.40
2012,07,06,05,15,10.30
2012,07,06,05,16,10.30
2012,07,06,05,17,10.30
2012,07,06,05,18,10.30
2012,07,06,05,19,10.30
2012,07,06,05,20,10.30
2012,07,06,05,21,10.30
2012,07,06,05,22,10.30
2012,07,06,05,23,10.30
2012,07,06,05,24,10.30
2012,07,06,05,25,10.30
2012,07,06,05,26,10.30
2012,07,06,05,27,10.30
2012,07,06,05,28,10.30
2012,07,06,05,29,10.30
2012,07,06,05,30,10.30
2012,07,06,05,31,10.30
2012,07,06,05,32,10.30
2012,07,06,05,33,10.30
2012,07,06,05,34,10.30
2012,07,06,05,35,10.30
2012,07,06,05,36,10.30
2012,07,06,05,37,10.30
2012,07,06,05,38,10.30
2012,07,06,05,39,10.30
2012,07,06,05,40,10.40
2012,07,06,05,41,10.40
2012,07,06,05,42,10.40
2012,07,06,05,43,10.40
2012,07,06,05,44,10.50
2012,07,06,05,45,10.50
2012,07,06,05,46,10.50
2012,07,06,05,47,10.60
2012,07,06,05,48,10.60
2012,07,06,05,49,10.60
2012,07,06,05,50,10.60
2012,07,06,05,51,10.70
2012,07,06,05,52,10.70
2012,07,06,05,53,10.70
2012,07,06,05,54,10.70
2012,07,06,05,55,10.80
2012,07,06,05,56,10.80
2012,07,06,05,57,10.80
2012,07,06,05,58,10.80
2012,07,06,05,59,10.80
2012,07,06,06,00,10.80
2012,07,06,06,01,10.90
2012,07,06,06,02,10.90
2012,07,06,06,03,10.90
2012,07,06,06,04,11.00
2012,07,06,06,05,11.00
2012,07,06,06,06,11.00
2012,07,06,06,07,11.00
2012,07,06,06,08,11.00
2012,07,06,06,09,11.00
2012,07,06,06,10,11.00
2012,07,06,06,11,11.00
2012,07,06,06,12,11.00
2012,07,06,06,13,11.00
2012,07,06,06,14,10.90
2012,07,06,06,15,10.90
2012,07,06,06,16,10.90
2012,07,06,06,17,10.90
2012,07,06,06,18,10.90
2012,07,06,06,19,10.90
2012,07,06,06,20,10.90
2012,07,06,06,21,10.90
2012,07,06,06,22,10.90
2012,07,06,06,23,10.90
2012,07,06,06,24,10.90
2012,07,06,06,25,10.90
2012,07,06,06,26,10.90
2012,07,06,06,27,10.90
2012,07,06,06,28,10.90
2012,07,06,06,29,10.90
2012,07,06,06,30,10.90
2012,07,06,06,31,11.00
2012,07,06,06,32,11.00
2012,07,06,06,33,11.00
2012,07,06,06,34,11.00
2012,07,06,06,35,11.00
2012,07,06,06,36,11.10
2012,07,06,06,37,11.10
2012,07,06,06,38,11.10
2012,07,06,06,39,11.10
2012,07,06,06,40,11.10
2012,07,06,06,41,11.10
2012,07,06,06,42,11.10
2012,07,06,06,43,11.10
2012,07,06,06,44,11.20
2012,07,06,06,45,11.20
2012,07,06,06,46,11.20
2012,07,06,06,47,11.30
2012,07,06,06,48,11.30
2012,07,06,06,49,11.40
2012,07,06,06,50,11.50
2012,07,06,06,51,11.70
2012,07,06,06,52,11.80
2012,07,06,06,53,12.00
2012,07,06,06,54,12.10
2012,07,06,06,55,12.20
2012,07,06,06,56,12.30
2012,07,06,06,57,12.40
2012,07,06,06,58,12.50
2012,07,06,06,59,12.70
2012,07,06,07,00,12.80
2012,07,06,07,01,12.90
2012,07,06,07,02,13.00
2012,07,06,07,03,13.20
2012,07,06,07,04,13.30
2012,07,06,07,05,13.40
2012,07,06,07,06,13.50
2012,07,06,07,07,13.60
2012,07,06,07,08,13.60
2012,07,06,07,09,13.70
2012,07,06,07,10,13.70
2012,07,06,07,11,13.70
2012,07,06,07,12,13.70
2012,07,06,07,13,13.80
2012,07,06,07,14,13.80
2012,07,06,07,15,13.80
2012,07,06,07,16,13.80
2012,07,06,07,17,13.90
2012,07,06,07,18,13.90
2012,07,06,07,19,14.00
2012,07,06,07,20,14.00
2012,07,06,07,21,14.10
2012,07,06,07,22,14.20
2012,07,06,07,23,14.20
2012,07,06,07,24,14.30
2012,07,06,07,25,14.40
2012,07,06,07,26,14.40
2012,07,06,07,27,14.50
2012,07,06,07,28,14.60
2012,07,06,07,29,14.60
2012,07,06,07,30,14.70
2012,07,06,07,31,14.80
2012,07,06,07,32,14.80
2012,07,06,07,33,14.90
2012,07,06,07,34,15.00
2012,07,06,07,35,15.10
2012,07,06,07,36,15.10
2012,07,06,07,37,15.20
2012,07,06,07,38,15.30
2012,07,06,07,39,15.30
2012,07,06,07,40,15.40
2012,07,06,07,41,15.50
2012,07,06,07,42,15.60
2012,07,06,07,43,15.70
2012,07,06,07,44,15.80
2012,07,06,07,45,15.90
2012,07,06,07,46,16.00
2012,07,06,07,47,16.10
2012,07,06,07,48,16.20
2012,07,06,07,49,16.30
2012,07,06,07,50,16.40
2012,07,06,07,51,16.50
2012,07,06,07,52,16.60
2012,07,06,07,53,16.70
2012,07,06,07,54,16.80
2012,07,06,07,55,16.90
2012,07,06,07,56,17.00
2012,07,06,07,57,17.10
2012,07,06,07,58,17.10
2012,07,06,07,59,17.20
2012,07,06,08,00,17.20
2012,07,06,08,01,17.20
2012,07,06,08,02,17.20
2012,07,06,08,03,17.30
2012,07,06,08,04,17.30
2012,07,06,08,05,17.30
2012,07,06,08,06,17.30
2012,07,06,08,07,17.30
2012,07,06,08,08,17.30
2012,07,06,08,09,17.30
2012,07,06,08,10,17.30
2012,07,06,08,11,17.30
2012,07,06,08,12,17.30
2012,07,06,08,13,17.30
2012,07,06,08,14,17.30
2012,07,06,08,15,17.30
2012,07,06,08,16,17.30
2012,07,06,08,17,17.30
2012,07,06,08,18,17.30
2012,07,06,08,19,17.20
2012,07,06,08,20,17.20
2012,07,06,08,21,17.20
2012,07,06,08,22,17.20
2012,07,06,08,23,17.20
2012,07,06,08,24,17.20
2012,07,06,08,25,17.20
2012,07,06,08,26,17.10
2012,07,06,08,27,17.10
2012,07,06,08,28,17.10
2012,07,06,08,29,17.10
2012,07,06,08,30,17.00
2012,07,06,08,31,17.00
2012,07,06,08,32,17.00
2012,07,06,08,33,17.00
2012,07,06,08,34,17.00
2012,07,06,08,35,17.00
2012,07,06,08,36,17.00
2012,07,06,08,37,17.00
2012,07,06,08,38,16.90
2012,07,06,08,39,16.90
2012,07,06,08,40,16.90
2012,07,06,08,41,16.90
2012,07,06,08,42,16.90
2012,07,06,08,43,16.90
2012,07,06,08,44,16.90
2012,07,06,08,45,17.00
2012,07,06,08,46,17.00
2012,07,06,08,47,17.10
2012,07,06,08,48,17.10
2012,07,06,08,49,17.10
2012,07,06,08,50,17.10
2012,07,06,08,51,17.20
2012,07,06,08,52,17.20
2012,07,06,08,53,17.20
2012,07,06,08,54,17.20
2012,07,06,08,55,17.20
2012,07,06,08,56,17.20
2012,07,06,08,57,17.20
2012,07,06,08,58,17.20
2012,07,06,08,59,17.20
2012,07,06,09,00,17.20
2012,07,06,09,01,17.20
2012,07,06,09,02,17.20
2012,07,06,09,03,17.30
2012,07,06,09,04,17.30
2012,07,06,09,05,17.30
2012,07,06,09,06,17.40
2012,07,06,09,07,17.40
2012,07,06,09,08,17.40
2012,07,06,09,09,17.40
2012,07,06,09,10,17.40
2012,07,06,09,11,17.40
2012,07,06,09,12,17.40
2012,07,06,09,13,17.40
2012,07,06,09,14,17.40
2012,07,06,09,15,17.40
2012,07,06,09,16,17.30
2012,07,06,09,17,17.30
2012,07,06,09,18,17.30
2012,07,06,09,19,17.30
2012,07,06,09,20,17.30
2012,07,06,09,21,17.20
2012,07,06,09,22,17.20
2012,07,06,09,23,17.20
2012,07,06,09,24,17.10
2012,07,06,09,25,17.10
2012,07,06,09,26,17.10
2012,07,06,09,27,17.10
2012,07,06,09,28,17.00
2012,07,06,09,29,17.00
2012,07,06,09,30,17.00
2012,07,06,09,31,17.00
2012,07,06,09,32,16.90
2012,07,06,09,33,16.90
2012,07,06,09,34,16.90
2012,07,06,09,35,17.00
2012,07,06,09,36,17.00
2012,07,06,09,37,17.00
2012,07,06,09,38,17.00
2012,07,06,09,39,17.00
2012,07,06,09,40,17.10
2012,07,06,09,41,17.00
2012,07,06,09,42,17.00
2012,07,06,09,43,17.10
2012,07,06,09,44,17.10
2012,07,06,09,45,17.20
2012,07,06,09,46,17.20
2012,07,06,09,47,17.20
2012,07,06,09,48,17.20
2012,07,06,09,49,17.20
2012,07,06,09,50,17.20
2012,07,06,09,51,17.20
2012,07,06,09,52,17.10
2012,07,06,09,53,17.10
2012,07,06,09,54,17.00
2012,07,06,09,55,17.00
2012,07,06,09,56,17.00
2012,07,06,09,57,17.00
2012,07,06,09,58,17.10
2012,07,06,09,59,17.10
2012,07,06,10,00,17.10
2012,07,06,10,01,17.10
2012,07,06,10,02,17.10
2012,07,06,10,03,17.10
2012,07,06,10,04,17.10
2012,07,06,10,05,17.00
2012,07,06,10,06,17.00
2012,07,06,10,07,16.90
2012,07,06,10,08,17.00
2012,07,06,10,09,17.00
2012,07,06,10,10,17.10
2012,07,06,10,11,17.10
2012,07,06,10,12,17.20
2012,07,06,10,13,17.30
2012,07,06,10,14,17.50
2012,07,06,10,15,17.60
2012,07,06,10,16,17.60
2012,07,06,10,17,17.50
2012,07,06,10,18,17.50
2012,07,06,10,19,17.50
2012,07,06,10,20,17.50
2012,07,06,10,21,17.40
2012,07,06,10,22,17.40
2012,07,06,10,23,17.50
2012,07,06,10,24,17.50
2012,07,06,10,25,17.60
2012,07,06,10,26,17.60
2012,07,06,10,27,17.70
2012,07,06,10,28,17.60
2012,07,06,10,29,17.60
2012,07,06,10,30,17.60
2012,07,06,10,31,17.60
2012,07,06,10,32,17.60
2012,07,06,10,33,17.70
2012,07,06,10,34,17.80
2012,07,06,10,35,17.90
2012,07,06,10,36,17.90
2012,07,06,10,37,17.90
2012,07,06,10,38,17.90
2012,07,06,10,39,17.90
2012,07,06,10,40,17.90
2012,07,06,10,41,17.90
2012,07,06,10,42,17.90
2012,07,06,10,43,17.90
2012,07,06,10,44,17.90
2012,07,06,10,45,17.90
2012,07,06,10,46,17.90
2012,07,06,10,47,17.90
2012,07,06,10,48,17.90
2012,07,06,10,49,18.00
2012,07,06,10,50,18.10
2012,07,06,10,51,18.30
2012,07,06,10,52,18.30
2012,07,06,10,53,18.30
2012,07,06,10,54,18.30
2012,07,06,10,55,18.30
2012,07,06,10,56,18.20
2012,07,06,10,57,18.20
2012,07,06,10,58,18.20
2012,07,06,10,59,18.30
2012,07,06,11,00,18.30
2012,07,06,11,01,18.30
2012,07,06,11,02,18.30
2012,07,06,11,03,18.30
2012,07,06,11,04,18.30
2012,07,06,11,05,18.30
2012,07,06,11,06,18.30
2012,07,06,11,07,18.30
2012,07,06,11,08,18.20
2012,07,06,11,09,18.10
2012,07,06,11,10,18.00
2012,07,06,11,11,17.90
2012,07,06,11,12,17.90
2012,07,06,11,13,18.00
2012,07,06,11,14,18.00
2012,07,06,11,15,18.10
2012,07,06,11,16,18.10
2012,07,06,11,17,18.10
2012,07,06,11,18,18.00
2012,07,06,11,19,18.00
2012,07,06,11,20,18.00
2012,07,06,11,21,17.90
2012,07,06,11,22,17.90
2012,07,06,11,23,17.90
2012,07,06,11,24,17.90
2012,07,06,11,25,17.90
2012,07,06,11,26,17.90
2012,07,06,11,27,17.90
2012,07,06,11,28,18.00
2012,07,06,11,29,18.00
2012,07,06,11,30,18.10
2012,07,06,11,31,18.10
2012,07,06,11,32,18.20
2012,07,06,11,33,18.30
2012,07,06,11,34,18.30
2012,07,06,11,35,18.40
2012,07,06,11,36,18.40
2012,07,06,11,37,18.40
2012,07,06,11,38,18.40
2012,07,06,11,39,18.50
2012,07,06,11,40,18.60
2012,07,06,11,41,18.60
2012,07,06,11,42,18.60
2012,07,06,11,43,18.60
2012,07,06,11,44,18.60
2012,07,06,11,45,18.50
2012,07,06,11,46,18.50
2012,07,06,11,47,18.40
2012,07,06,11,48,18.40
2012,07,06,11,49,18.60
2012,07,06,11,50,18.60
2012,07,06,11,51,18.70
2012,07,06,11,52,18.70
2012,07,06,11,53,18.60
2012,07,06,11,54,18.60
2012,07,06,11,55,18.50
2012,07,06,11,56,18.50
2012,07,06,11,57,18.60
2012,07,06,11,58,18.60
2012,07,06,11,59,18.70
2012,07,06,12,00,18.70
2012,07,06,12,01,18.80
2012,07,06,12,02,19.00
2012,07,06,12,03,19.10
2012,07,06,12,04,19.30
2012,07,06,12,05,19.40
2012,07,06,12,06,19.30
2012,07,06,12,07,19.20
2012,07,06,12,08,19.10
2012,07,06,12,09,19.00
2012,07,06,12,10,18.90
2012,07,06,12,11,18.90
2012,07,06,12,12,18.90
2012,07,06,12,13,18.90
2012,07,06,12,14,18.90
2012,07,06,12,15,18.90
2012,07,06,12,16,18.90
2012,07,06,12,17,18.90
2012,07,06,12,18,18.90
2012,07,06,12,19,18.90
2012,07,06,12,20,19.00
2012,07,06,12,21,19.10
2012,07,06,12,22,19.10
2012,07,06,12,23,19.00
2012,07,06,12,24,19.00
2012,07,06,12,25,18.90
2012,07,06,12,26,18.80
2012,07,06,12,27,18.80
2012,07,06,12,28,18.80
2012,07,06,12,29,18.80
2012,07,06,12,30,18.70
2012,07,06,12,31,18.80
2012,07,06,12,32,18.90
2012,07,06,12,33,18.90
2012,07,06,12,34,19.00
2012,07,06,12,35,19.00
2012,07,06,12,36,19.00
2012,07,06,12,37,19.10
2012,07,06,12,38,19.20
2012,07,06,12,39,19.10
2012,07,06,12,40,19.10
2012,07,06,12,41,19.10
2012,07,06,12,42,19.10
2012,07,06,12,43,19.20
2012,07,06,12,44,19.20
2012,07,06,12,45,19.20
2012,07,06,12,46,19.20
2012,07,06,12,47,19.20
2012,07,06,12,48,19.20
2012,07,06,12,49,19.10
2012,07,06,12,50,19.10
2012,07,06,12,51,19.20
2012,07,06,12,52,19.40
2012,07,06,12,53,19.50
2012,07,06,12,54,19.50
2012,07,06,12,55,19.60
2012,07,06,12,56,19.50
2012,07,06,12,57,19.50
2012,07,06,12,58,19.40
2012,07,06,12,59,19.40
2012,07,06,13,00,19.40
2012,07,06,13,01,19.30
2012,07,06,13,02,19.30
2012,07,06,13,03,19.40
2012,07,06,13,04,19.40
2012,07,06,13,05,19.40
2012,07,06,13,06,19.40
2012,07,06,13,07,19.50
2012,07,06,13,08,19.60
2012,07,06,13,09,19.60
2012,07,06,13,10,19.70
2012,07,06,13,11,19.70
2012,07,06,13,12,19.60
2012,07,06,13,13,19.60
2012,07,06,13,14,19.50
2012,07,06,13,15,19.30
2012,07,06,13,16,19.30
2012,07,06,13,17,19.20
2012,07,06,13,18,19.20
2012,07,06,13,19,19.30
2012,07,06,13,20,19.30
2012,07,06,13,21,19.40
2012,07,06,13,22,19.40
2012,07,06,13,23,19.40
2012,07,06,13,24,19.40
2012,07,06,13,25,19.30
2012,07,06,13,26,19.30
2012,07,06,13,27,19.30
2012,07,06,13,28,19.30
2012,07,06,13,29,19.30
2012,07,06,13,30,19.40
2012,07,06,13,31,19.40
2012,07,06,13,32,19.50
2012,07,06,13,33,19.60
2012,07,06,13,34,19.60
2012,07,06,13,35,19.60
2012,07,06,13,36,19.60
2012,07,06,13,37,19.50
2012,07,06,13,38,19.60
2012,07,06,13,39,19.60
2012,07,06,13,40,19.70
2012,07,06,13,41,19.80
2012,07,06,13,42,19.80
2012,07,06,13,43,19.80
2012,07,06,13,44,19.90
2012,07,06,13,45,19.90
2012,07,06,13,46,19.90
2012,07,06,13,47,20.00
2012,07,06,13,48,20.00
2012,07,06,13,49,20.10
2012,07,06,13,50,20.10
2012,07,06,13,51,20.10
2012,07,06,13,52,20.20
2012,07,06,13,53,20.20
2012,07,06,13,54,20.30
2012,07,06,13,55,20.50
2012,07,06,13,56,20.60
2012,07,06,13,57,20.60
2012,07,06,13,58,20.60
2012,07,06,13,59,20.60
2012,07,06,14,00,20.60
2012,07,06,14,01,20.50
2012,07,06,14,02,20.50
2012,07,06,14,03,20.50
2012,07,06,14,04,20.60
2012,07,06,14,05,20.60
2012,07,06,14,06,20.60
2012,07,06,14,07,20.60
2012,07,06,14,08,20.60
2012,07,06,14,09,20.60
2012,07,06,14,10,20.70
2012,07,06,14,11,20.70
2012,07,06,14,12,20.60
2012,07,06,14,13,20.40
2012,07,06,14,14,20.40
2012,07,06,14,15,20.30
2012,07,06,14,16,20.20
2012,07,06,14,17,20.10
2012,07,06,14,18,20.00
2012,07,06,14,19,20.00
2012,07,06,14,20,20.00
2012,07,06,14,21,19.90
2012,07,06,14,22,19.90
2012,07,06,14,23,19.90
2012,07,06,14,24,19.90
2012,07,06,14,25,19.80
2012,07,06,14,26,19.90
2012,07,06,14,27,19.90
2012,07,06,14,28,19.90
2012,07,06,14,29,19.90
2012,07,06,14,30,19.90
2012,07,06,14,31,19.80
2012,07,06,14,32,19.80
2012,07,06,14,33,19.80
2012,07,06,14,34,19.80
2012,07,06,14,35,19.90
2012,07,06,14,36,19.90
2012,07,06,14,37,19.90
2012,07,06,14,38,20.00
2012,07,06,14,39,19.90
2012,07,06,14,40,19.90
2012,07,06,14,41,19.90
2012,07,06,14,42,20.00
2012,07,06,14,43,20.00
2012,07,06,14,44,20.10
2012,07,06,14,45,20.30
2012,07,06,14,46,20.40
2012,07,06,14,47,20.50
2012,07,06,14,48,20.50
2012,07,06,14,49,20.50
2012,07,06,14,50,20.50
2012,07,06,14,51,20.50
2012,07,06,14,52,20.50
2012,07,06,14,53,20.50
2012,07,06,14,54,20.50
2012,07,06,14,55,20.50
2012,07,06,14,56,20.60
2012,07,06,14,57,20.60
2012,07,06,14,58,20.70
2012,07,06,14,59,20.70
2012,07,06,15,00,20.70
2012,07,06,15,01,20.80
2012,07,06,15,02,20.80
2012,07,06,15,03,20.80
2012,07,06,15,04,20.90
2012,07,06,15,05,21.00
2012,07,06,15,06,21.00
2012,07,06,15,07,21.10
2012,07,06,15,08,21.10
2012,07,06,15,09,21.20
2012,07,06,15,10,21.20
2012,07,06,15,11,21.10
2012,07,06,15,12,21.00
2012,07,06,15,13,20.90
2012,07,06,15,14,20.90
2012,07,06,15,15,20.80
2012,07,06,15,16,20.80
2012,07,06,15,17,20.70
2012,07,06,15,18,20.60
2012,07,06,15,19,20.60
2012,07,06,15,20,20.70
2012,07,06,15,21,20.70
2012,07,06,15,22,20.70
2012,07,06,15,23,20.70
2012,07,06,15,24,20.70
2012,07,06,15,25,20.70
2012,07,06,15,26,20.70
2012,07,06,15,27,20.70
2012,07,06,15,28,20.70
2012,07,06,15,29,20.80
2012,07,06,15,30,20.80
2012,07,06,15,31,20.90
2012,07,06,15,32,20.90
2012,07,06,15,33,21.00
2012,07,06,15,34,21.10
2012,07,06,15,35,21.10
2012,07,06,15,36,21.10
2012,07,06,15,37,21.10
2012,07,06,15,38,21.20
2012,07,06,15,39,21.20
2012,07,06,15,40,21.30
2012,07,06,15,41,21.30
2012,07,06,15,42,21.30
2012,07,06,15,43,21.30
2012,07,06,15,44,21.20
2012,07,06,15,45,21.20
2012,07,06,15,46,21.20
2012,07,06,15,47,21.20
2012,07,06,15,48,21.20
2012,07,06,15,49,21.20
2012,07,06,15,50,21.30
2012,07,06,15,51,21.30
2012,07,06,15,52,21.40
2012,07,06,15,53,21.40
2012,07,06,15,54,21.40
2012,07,06,15,55,21.50
2012,07,06,15,56,21.60
2012,07,06,15,57,21.70
2012,07,06,15,58,21.70
2012,07,06,15,59,21.70
2012,07,06,16,00,21.70
2012,07,06,16,01,21.70
2012,07,06,16,02,21.60
2012,07,06,16,03,21.60
2012,07,06,16,04,21.60
2012,07,06,16,05,21.70
2012,07,06,16,06,21.80
2012,07,06,16,07,21.90
2012,07,06,16,08,21.90
2012,07,06,16,09,21.90
2012,07,06,16,10,21.90
2012,07,06,16,11,22.00
2012,07,06,16,12,22.10
2012,07,06,16,13,22.10
2012,07,06,16,14,22.10
2012,07,06,16,15,22.10
2012,07,06,16,16,22.10
2012,07,06,16,17,22.10
2012,07,06,16,18,22.10
2012,07,06,16,19,22.10
2012,07,06,16,20,22.00
2012,07,06,16,21,22.00
2012,07,06,16,22,22.00
2012,07,06,16,23,22.00
2012,07,06,16,24,22.00
2012,07,06,16,25,22.00
2012,07,06,16,26,22.00
2012,07,06,16,27,22.00
2012,07,06,16,28,22.00
2012,07,06,16,29,21.90
2012,07,06,16,30,21.90
2012,07,06,16,31,22.00
2012,07,06,16,32,22.10
2012,07,06,16,33,22.20
2012,07,06,16,34,22.30
2012,07,06,16,35,22.30
2012,07,06,16,36,22.30
2012,07,06,16,37,22.30
2012,07,06,16,38,22.20
2012,07,06,16,39,22.20
2012,07,06,16,40,22.10
2012,07,06,16,41,22.10
2012,07,06,16,42,22.10
2012,07,06,16,43,22.10
2012,07,06,16,44,22.00
2012,07,06,16,45,22.00
2012,07,06,16,46,22.00
2012,07,06,16,47,22.00
2012,07,06,16,48,22.00
2012,07,06,16,49,22.10
2012,07,06,16,50,22.20
2012,07,06,16,51,22.30
2012,07,06,16,52,22.30
2012,07,06,16,53,22.40
2012,07,06,16,54,22.40
2012,07,06,16,55,22.50
2012,07,06,16,56,22.50
2012,07,06,16,57,22.50
2012,07,06,16,58,22.60
2012,07,06,16,59,22.70
2012,07,06,17,00,22.80
2012,07,06,17,01,22.80
2012,07,06,17,02,22.80
2012,07,06,17,03,22.80
2012,07,06,17,04,22.90
2012,07,06,17,05,22.80
2012,07,06,17,06,22.70
2012,07,06,17,07,22.70
2012,07,06,17,08,22.70
2012,07,06,17,09,22.70
2012,07,06,17,10,22.70
2012,07,06,17,11,22.80
2012,07,06,17,12,22.80
2012,07,06,17,13,22.80
2012,07,06,17,14,22.80
2012,07,06,17,15,22.90
2012,07,06,17,16,23.00
2012,07,06,17,17,23.00
2012,07,06,17,18,23.10
2012,07,06,17,19,23.10